Regional Weather Roundup
Issued by NWS

Home | Current Version | Previous Version | Graphics & Text | Print | Product List | Glossary On
Versions: 1 2 3 4 5 6 7 8 9 10 11 12 13 14 15 16 17 18 19 20 21 22 23 24 25 26 27 28 29 30 31 32 33 34 35 36 37 38 39 40 41 42 43 44 45 46 47 48 49 50
000
ASUS43 KBIS 301310
RWRND

NORTH DAKOTA REGIONAL WEATHER ROUNDUP
NATIONAL WEATHER SERVICE BISMARCK ND
800 AM CDT MON MAY 30 2016

NOTE: "FAIR" INDICATES FEW OR NO CLOUDS BELOW 12,000 FEET WITH NO
SIGNIFICANT WEATHER AND/OR OBSTRUCTIONS TO VISIBILITY.


NDZ001>003-009>011-017-301400-
NORTHWEST NORTH DAKOTA

CITY           SKY/WX    TMP DP  RH WIND       PRES   REMARKS
WILLISTON      PTSUNNY   51  45  79 NE3       29.90S
MINOT          SUNNY     59  50  72 CALM      29.89S
MINOT AFB      MOSUNNY   57  49  75 CALM      29.88F
$$

NDZ018>021-031>035-040>046-301400-
SOUTHWEST NORTH DAKOTA

CITY           SKY/WX    TMP DP  RH WIND       PRES   REMARKS
BISMARCK       SUNNY     57  53  86 CALM      29.93F
DICKINSON      MOSUNNY   57  50  77 CALM      29.90R
GARRISON         N/A     57  52  83 SE3       29.91S
HETTINGER ARPT CLOUDY    60  53  77 E7        29.91S
$$

NDZ004>008-012>016-024-026-027-054-301400-
NORTHEAST NORTH DAKOTA

CITY           SKY/WX    TMP DP  RH WIND       PRES   REMARKS
GRAND FORKS    CLOUDY    58  51  78 S6        29.92R
GRND FRKS AFB  LGT RAIN  66  52  59 SW9       29.92S
DEVILS LAKE    MOSUNNY   62  53  72 S5        29.93S
$$

NDZ022-023-025-028>030-036>039-047>053-301400-
SOUTHEAST NORTH DAKOTA

CITY           SKY/WX    TMP DP  RH WIND       PRES   REMARKS
FARGO          SUNNY     64  49  57 S5        29.94S
JAMESTOWN      SUNNY     63  53  70 S5        29.93F
$$





USA.gov is the U.S. government's official web portal to all federal, state and local government web resources and services.